Weather History for Milton, FL

Change the Weather History Date:

Saturday, May 19, 2012

  Actual Average (KNSE) Record (KNSE)
Temperature  
Mean Temperature 76 °F -  
Max Temperature 87 °F 83 °F 95 °F (1998)
Min Temperature 66 °F 63 °F 52 °F (2011)
Cooling Degree Days 11    
Growing Degree Days 26 (Base 50)    
Moisture  
Dew Point 59 °F    
Average Humidity 58    
Maximum Humidity 81    
Minimum Humidity 31    
Precipitation  
Precipitation 0.00 in - - ()
Sea Level Pressure  
Sea Level Pressure 29.98 in    
Wind  
Wind Speed 8 mph (ENE)    
Max Wind Speed 15 mph    
Max Gust Speed 23 mph    
Visibility 10 miles    
Events      
Averages and records for this station are not official NWS values.
T = Trace of Precipitation, MM = Missing Value Source: NWS Daily Summary

Daily Weather History Graph

Daily Weather History Graph

Search for Another Location

Airport:

Trip Planner

Search our weather history database for the weather conditions in past years. The results will help you decide how hot, cold, wet, or windy it might be!

Date:

Astronomy

May. 19, 2012 Rise Set
Actual Time 5:50 AM CDT 7:38 PM CDT
Civil Twilight 5:24 AM CDT 8:05 PM CDT
Nautical Twilight 4:51 AM CDT 8:37 PM CDT
Astronomical Twilight 4:17 AM CDT 9:11 PM CDT
Moon 4:49 AM CDT (5/19) 6:44 PM CDT (5/19)
Length of Visible Light 14h 41m
Length of Day
13h 48m
Waning Crescent, 1% of the Moon is Illuminated
May 19
Waning Crescent
May 20
New
May 28
First Quarter
Jun 4
Full
Jun 11
Last Quarter

Hourly Weather History & Observations

Time (CDT) Temp. Heat Index Dew Point Humidity Pressure Visibility Wind Dir Wind Speed Gust Speed Precip Events Conditions
12:56 AM 70.0 °F - 60.1 °F 71% 29.95 in 10.0 mi ENE 6.9 mph - N/A   Clear
1:56 AM 70.0 °F - 60.1 °F 71% 29.95 in 10.0 mi ENE 8.1 mph - N/A   Clear
2:56 AM 68.0 °F - 60.1 °F 76% 29.94 in 10.0 mi East 8.1 mph - N/A   Clear
3:56 AM 68.0 °F - 60.1 °F 76% 29.96 in 10.0 mi East 8.1 mph - N/A   Clear
4:56 AM 66.9 °F - 60.1 °F 79% 29.96 in 10.0 mi ENE 5.8 mph - N/A   Clear
5:56 AM 66.0 °F - 60.1 °F 81% 29.98 in 10.0 mi ENE 6.9 mph - N/A   Clear
6:56 AM 68.0 °F - 61.0 °F 78% 30.01 in 10.0 mi ENE 8.1 mph - N/A   Clear
7:56 AM 71.1 °F - 62.1 °F 73% 30.02 in 10.0 mi East 9.2 mph - N/A   Clear
8:56 AM 73.9 °F - 63.0 °F 68% 30.04 in 10.0 mi ENE 12.7 mph - N/A   Clear
9:56 AM 77.0 °F - 64.0 °F 64% 30.03 in 10.0 mi East 10.4 mph - N/A   Scattered Clouds
10:56 AM 79.0 °F - 63.0 °F 58% 30.03 in 10.0 mi ENE 8.1 mph - N/A   Clear
11:56 AM 81.0 °F 81.9 °F 62.1 °F 52% 30.01 in 10.0 mi NE 9.2 mph - N/A   Scattered Clouds
12:56 PM 84.0 °F 84.4 °F 61.0 °F 46% 30.00 in 10.0 mi NNE 10.4 mph - N/A   Scattered Clouds
1:56 PM 84.9 °F 84.2 °F 57.9 °F 40% 29.99 in 10.0 mi East 11.5 mph - N/A   Partly Cloudy
2:56 PM 86.0 °F 84.5 °F 55.0 °F 35% 29.96 in 10.0 mi East 12.7 mph 19.6 mph N/A   Partly Cloudy
3:56 PM 86.0 °F 84.0 °F 53.1 °F 32% 29.95 in 10.0 mi NE 12.7 mph 19.6 mph N/A   Clear
4:56 PM 84.9 °F - 51.1 °F 31% 29.94 in 10.0 mi East 15.0 mph 23.0 mph N/A   Clear
5:56 PM 84.0 °F 82.5 °F 53.1 °F 34% 29.94 in 10.0 mi ENE 11.5 mph - N/A   Clear
6:56 PM 81.0 °F 80.7 °F 55.0 °F 41% 29.94 in 10.0 mi ENE 4.6 mph - N/A   Clear
7:56 PM 78.1 °F - 57.0 °F 48% 29.96 in 10.0 mi NNE 6.9 mph - N/A   Mostly Cloudy
8:56 PM 75.9 °F - 57.0 °F 52% 29.98 in 10.0 mi NNE 5.8 mph - N/A   Clear
9:56 PM 73.9 °F - 57.9 °F 57% 30.00 in 10.0 mi North 5.8 mph - N/A   Clear
10:56 PM 73.0 °F - 57.9 °F 59% 30.01 in 10.0 mi NNE 4.6 mph - N/A   Clear
11:56 PM 72.0 °F - 57.9 °F 61% 30.01 in 10.0 mi NE 5.8 mph - N/A   Clear